Meteo pe oră la Bolshoe Fedorovskoe

Astăzi, 10 Mai, Luni

Timp Temperatura Precipitaţii Vânt Presiune Umiditate
00:00 +4°C° 0 mm 1 m/s 745 mmHg 67%
01:00 +3°C° 0 mm 1 m/s 746 mmHg 68%
02:00 +3°C° 0 mm 1 m/s 746 mmHg 68%
03:00 +3°C° 0 mm 1 m/s 746 mmHg 69%
04:00 +4°C° 0 mm 1 m/s 747 mmHg 69%
05:00 +4°C° 0 mm 1 m/s 747 mmHg 69%
06:00 +5°C° 0 mm 2 m/s 747 mmHg 63%
07:00 +7°C° 0 mm 2 m/s 748 mmHg 56%
08:00 +10°C° 0 mm 2 m/s 748 mmHg 49%
09:00 +12°C° 0 mm 2 m/s 748 mmHg 45%
10:00 +13°C° 0 mm 2 m/s 748 mmHg 41%
11:00 +14°C° 0 mm 3 m/s 748 mmHg 37%
12:00 +15°C° 0 mm 2 m/s 748 mmHg 37%
13:00 +16°C° 0 mm 2 m/s 747 mmHg 37%
14:00 +17°C° 0 mm 2 m/s 747 mmHg 36%
15:00 +16°C° 0 mm 2 m/s 747 mmHg 39%
16:00 +16°C° 0 mm 2 m/s 747 mmHg 41%
17:00 +16°C° 0 mm 1 m/s 747 mmHg 43%
18:00 +14°C° 0 mm 1 m/s 747 mmHg 51%
19:00 +12°C° 0 mm 1 m/s 748 mmHg 59%
20:00 +10°C° 0 mm 1 m/s 748 mmHg 68%
21:00 +9°C° 0 mm 1 m/s 748 mmHg 70%
22:00 +9°C° 0 mm 1 m/s 748 mmHg 73%
23:00 +8°C° 0 mm 1 m/s 748 mmHg 75%

Mâine, 11 Mai, Marţi

Timp Temperatura Precipitaţii Vânt Presiune Umiditate
00:00 +7°C° 0 mm 1 m/s 748 mmHg 76%
01:00 +7°C° 0 mm 1 m/s 749 mmHg 76%
02:00 +7°C° 0 mm 1 m/s 749 mmHg 77%
03:00 +7°C° 0 mm 1 m/s 749 mmHg 76%
04:00 +7°C° 0 mm 1 m/s 749 mmHg 75%
05:00 +7°C° 0 mm 1 m/s 749 mmHg 73%
06:00 +9°C° 0 mm 1 m/s 749 mmHg 65%
07:00 +10°C° 0 mm 2 m/s 749 mmHg 57%
08:00 +14°C° 0 mm 2 m/s 749 mmHg 49%
09:00 +15°C° 0 mm 2 m/s 749 mmHg 45%
10:00 +16°C° 0 mm 3 m/s 749 mmHg 41%
11:00 +18°C° 0 mm 3 m/s 749 mmHg 37%
12:00 +18°C° 0 mm 3 m/s 748 mmHg 36%
13:00 +19°C° 0 mm 3 m/s 748 mmHg 35%
14:00 +19°C° 0 mm 3 m/s 748 mmHg 35%
15:00 +19°C° 0 mm 3 m/s 748 mmHg 38%
16:00 +19°C° 0 mm 3 m/s 748 mmHg 41%
17:00 +18°C° 0 mm 3 m/s 747 mmHg 45%
18:00 +16°C° 0 mm 3 m/s 747 mmHg 54%
19:00 +14°C° 0 mm 2 m/s 747 mmHg 63%
20:00 +10°C° 0 mm 2 m/s 747 mmHg 72%
21:00 +10°C° 0 mm 2 m/s 747 mmHg 75%
22:00 +10°C° 0 mm 2 m/s 747 mmHg 78%
23:00 +9°C° 0 mm 2 m/s 747 mmHg 81%

Poimâine, 12 Mai, Miercuri

Timp Temperatura Precipitaţii Vânt Presiune Umiditate
00:00 +9°C° 0 mm 2 m/s 747 mmHg 85%
01:00 +9°C° 0 mm 2 m/s 747 mmHg 89%
02:00 +8°C° 0 mm 2 m/s 747 mmHg 94%
03:00 +9°C° 0 mm 2 m/s 747 mmHg 94%
04:00 +9°C° 0 mm 2 m/s 747 mmHg 95%
05:00 +10°C° 0 mm 1 m/s 747 mmHg 96%
06:00 +12°C° 0 mm 2 m/s 747 mmHg 89%
07:00 +14°C° 0 mm 2 m/s 747 mmHg 82%
08:00 +16°C° 0 mm 2 m/s 747 mmHg 76%
09:00 +17°C° 0 mm 2 m/s 747 mmHg 72%
10:00 +18°C° 0 mm 3 m/s 746 mmHg 68%
11:00 +19°C° 0 mm 3 m/s 746 mmHg 65%
12:00 +19°C° 0.2 mm 4 m/s 745 mmHg 64%
13:00 +20°C° 0.2 mm 4 m/s 744 mmHg 64%
14:00 +21°C° 0.2 mm 5 m/s 744 mmHg 63%
15:00 +20°C° 0.7 mm 5 m/s 743 mmHg 69%
16:00 +19°C° 0.7 mm 5 m/s 742 mmHg 74%
17:00 +16°C° 0.7 mm 5 m/s 741 mmHg 80%
18:00 +16°C° 0.8 mm 5 m/s 741 mmHg 83%
19:00 +15°C° 0.8 mm 6 m/s 741 mmHg 86%
20:00 +14°C° 0.8 mm 6 m/s 740 mmHg 89%
21:00 +11°C° 0.4 mm 6 m/s 741 mmHg 89%
22:00 +9°C° 0.4 mm 5 m/s 741 mmHg 90%
23:00 +7°C° 0.4 mm 5 m/s 741 mmHg 90%

13 Mai, Joi

Timp Temperatura Precipitaţii Vânt Presiune Umiditate
00:00 +7°C° 0 mm 5 m/s 742 mmHg 92%
01:00 +6°C° 0 mm 4 m/s 742 mmHg 93%
02:00 +5°C° 0 mm 3 m/s 742 mmHg 95%
03:00 +5°C° 0 mm 3 m/s 742 mmHg 94%
04:00 +5°C° 0 mm 3 m/s 742 mmHg 94%
05:00 +5°C° 0 mm 3 m/s 741 mmHg 93%
06:00 +7°C° 0.2 mm 3 m/s 741 mmHg 93%
07:00 +6°C° 0.2 mm 4 m/s 741 mmHg 92%
08:00 +7°C° 0.2 mm 4 m/s 741 mmHg 92%
09:00 +8°C° 0.5 mm 4 m/s 741 mmHg 89%
10:00 +10°C° 0.5 mm 4 m/s 741 mmHg 85%
11:00 +10°C° 0.5 mm 5 m/s 741 mmHg 82%
12:00 +13°C° 0.2 mm 5 m/s 740 mmHg 74%
13:00 +14°C° 0.2 mm 4 m/s 740 mmHg 66%
14:00 +15°C° 0.2 mm 4 m/s 740 mmHg 57%
15:00 +15°C° 0 mm 4 m/s 740 mmHg 58%
16:00 +15°C° 0 mm 4 m/s 740 mmHg 60%
17:00 +16°C° 0 mm 3 m/s 740 mmHg 61%
18:00 +13°C° 0 mm 3 m/s 740 mmHg 69%
19:00 +12°C° 0 mm 2 m/s 740 mmHg 77%
20:00 +9°C° 0 mm 2 m/s 740 mmHg 85%
21:00 +9°C° 0 mm 2 m/s 740 mmHg 87%
22:00 +8°C° 0 mm 2 m/s 741 mmHg 90%
23:00 +7°C° 0 mm 2 m/s 741 mmHg 92%

14 Mai, Vineri

Timp Temperatura Precipitaţii Vânt Presiune Umiditate
00:00 +7°C° 0 mm 2 m/s 741 mmHg 93%
01:00 +7°C° 0 mm 2 m/s 741 mmHg 94%
02:00 +7°C° 0 mm 2 m/s 740 mmHg 95%
03:00 +7°C° 0 mm 2 m/s 740 mmHg 93%
04:00 +8°C° 0 mm 2 m/s 740 mmHg 92%
05:00 +8°C° 0 mm 2 m/s 740 mmHg 91%
06:00 +10°C° 0 mm 3 m/s 740 mmHg 86%
07:00 +12°C° 0 mm 3 m/s 740 mmHg 81%
08:00 +14°C° 0 mm 4 m/s 739 mmHg 76%
09:00 +17°C° 0.1 mm 4 m/s 739 mmHg 71%
10:00 +17°C° 0.1 mm 5 m/s 739 mmHg 67%
11:00 +20°C° 0.1 mm 6 m/s 738 mmHg 62%
12:00 +20°C° 0.6 mm 5 m/s 738 mmHg 68%
13:00 +19°C° 0.6 mm 5 m/s 737 mmHg 74%
14:00 +18°C° 0.6 mm 4 m/s 737 mmHg 80%
15:00 +18°C° 1.4 mm 4 m/s 736 mmHg 81%
16:00 +17°C° 1.4 mm 5 m/s 736 mmHg 82%
17:00 +17°C° 1.4 mm 5 m/s 735 mmHg 83%
18:00 +17°C° 1.5 mm 4 m/s 735 mmHg 87%
19:00 +16°C° 1.5 mm 3 m/s 735 mmHg 91%
20:00 +15°C° 1.5 mm 2 m/s 735 mmHg 95%
21:00 +14°C° 0.1 mm 2 m/s 735 mmHg 96%
22:00 +14°C° 0.1 mm 2 m/s 735 mmHg 97%
23:00 +13°C° 0.1 mm 2 m/s 735 mmHg 98%

15 Mai, Sâmbătă

Timp Temperatura Precipitaţii Vânt Presiune Umiditate
00:00 +12°C° 0 mm 2 m/s 735 mmHg 98%
01:00 +12°C° 0 mm 2 m/s 735 mmHg 98%
02:00 +10°C° 0 mm 2 m/s 735 mmHg 98%
03:00 +11°C° 0 mm 1 m/s 736 mmHg 98%
04:00 +11°C° 0 mm 1 m/s 736 mmHg 98%
05:00 +11°C° 0 mm 1 m/s 736 mmHg 97%
06:00 +13°C° 0 mm 1 m/s 736 mmHg 93%
07:00 +14°C° 0 mm 2 m/s 736 mmHg 88%
08:00 +15°C° 0 mm 2 m/s 736 mmHg 83%
09:00 +17°C° 0 mm 2 m/s 737 mmHg 76%
10:00 +18°C° 0 mm 2 m/s 737 mmHg 69%
11:00 +19°C° 0 mm 2 m/s 737 mmHg 62%
12:00 +20°C° 0 mm 2 m/s 737 mmHg 58%
13:00 +21°C° 0 mm 2 m/s 737 mmHg 55%
14:00 +22°C° 0 mm 1 m/s 737 mmHg 51%
15:00 +22°C° 0.1 mm 1 m/s 737 mmHg 57%
16:00 +21°C° 0.1 mm 1 m/s 736 mmHg 63%
17:00 +20°C° 0.1 mm 1 m/s 736 mmHg 68%
18:00 +19°C° 0 mm 1 m/s 736 mmHg 74%
19:00 +16°C° 0 mm 1 m/s 736 mmHg 79%
20:00 +15°C° 0 mm 1 m/s 736 mmHg 85%
21:00 +14°C° 0 mm 1 m/s 735 mmHg 86%
22:00 +14°C° 0 mm 1 m/s 735 mmHg 88%
23:00 +13°C° 0 mm 1 m/s 735 mmHg 89%
Arată mai mult

Formular de consimțământ

Meteoprog și furnizorii noștri de servicii pot stoca și accesa date personale, precum cookies, identificatori de dispozitiv sau alte tehnologii similare pe dispozitivul dumneavoastră și procesa astfel de date pentru a personaliza conținutul și reclamele, dar și pentru a oferi caracteristici de social media și pentru a analiza traficul.

  • Stocarea și/sau accesarea informațiilor pe dispozitivul dumneavoastră

    Cookies, identificatori de dispozitiv sau alte informații pot fi stocate sau accesate pe dispozitiv în scopurile indicate mai sus.

  • Reclame și conținut personalizat, evaluarea reclamelor și a conținutului, informații despre audiențe și dezvoltarea produselor

    Reclamele și conținutul pot fi personalizate pe baza unui profil. Pot fi adăugate date suplimentare pentru a personaliza mai bine reclamele și conținutul. Performanța reclamelor și conținutului poate fi măsurată. Pot fi obținute informații despre utilizatorii care au văzut reclamele și conținutul. Aceste date pot fi utilizate pentru a dezvolta sau îmbunătăți experiența utilizatorilor, sistemele și software-ul.

Dând clic pe ‘Sunt de acord’, permiteți utilizarea cookie-urilor menționate, a identificatorilor de dispozitiv, balizelor web sau altor tehnologii similare. Setările pot fi modificate din browser-ul dispozitivului dumneavoastră.

În anumite scopuri, interesele legitime pot prima asupra consimțământului. Puteți citi mai multe informații în acest sens în Politica privind Confidențialitatea Datelor și Cookie.